Flag for U.S.A. Weather past 2 weeks in Canton, Ohio, U.S.A.

Now
82 °F

Passing clouds.


Feels Like: 82 °F
Forecast: 57 / 81 °F
Wind: 7 mph from Southwest

Location: Akron-Canton Regional Airport

Current Time: Aug 29, 2015 at 3:22:17 PM

Latest Report: Aug 29, 2015 at 2:51 PM


Visibility: 10 mi

Pressure: 30.10 "Hg

Humidity: 48%

Dew point: 60 °F

Location of CantonLocation

Historic Weather in Canton — Graph

°F

Canton temperature yesterday

Maximum temperature yesterday: 79 °F (at 3:51 PM)
Minimum temperature yesterday: 54 °F (at 5:51 AM)
Average temperature yesterday: 66 °F

Past Weeks' High & Low Weather Summary

 TemperatureHumidityPressure
High91 °F (Aug 19, 3:51 PM)94% (Aug 16, 6:51 AM)30.22 "Hg (Aug 16, 6:51 AM)
Low53 °F (Aug 26, 6:51 AM)31% (Aug 21, 4:51 PM)29.76 "Hg (Aug 20, 3:51 AM)
Average71 °F64%30.04 "Hg
* Reported Aug 14 1:51 PM — Aug 29 1:51 PM, Canton, Weather by CustomWeather, © 2015

Note: Actual official high and low records may vary slightly from our data, if they occured in-between our weather recording intervals... More about our weather records

Advertising

Canton weather history for previous 24 hours

 ConditionsComfort  
Time TempWeatherWind HumidityBarometerVisibility
1:51 PM
Sat, Aug 29
81 °FBroken clouds.10 mph49%30.12 "Hg10 mi
12:51 PM80 °FBroken clouds.5 mph47%30.14 "Hg10 mi
11:51 AM79 °FBroken clouds.3 mph48%30.16 "Hg10 mi
10:51 AM77 °FBroken clouds.6 mph48%30.16 "Hg10 mi
9:51 AM68 °FPartly sunny.3 mph70%30.18 "Hg8 mi
8:51 AM64 °FPartly sunny.5 mph78%30.17 "Hg7 mi
7:51 AM61 °FFog.3 mph83%30.17 "Hg6 mi
6:51 AM59 °FFog.5 mph84%30.15 "Hg4 mi
5:51 AM60 °FPassing clouds.No wind80%30.14 "Hg8 mi
4:51 AM60 °FPassing clouds.3 mph80%30.13 "Hg8 mi
2:51 AM59 °FFog.3 mph90%30.15 "Hg6 mi
1:51 AM61 °FPassing clouds.No wind83%30.16 "Hg8 mi
12:51 AM61 °FPassing clouds.6 mph83%30.17 "Hg8 mi
11:51 PM
Fri, Aug 28
62 °FPassing clouds.6 mph80%30.16 "Hg8 mi
10:51 PM64 °FPassing clouds.8 mph78%30.16 "Hg9 mi
9:51 PM64 °FPassing clouds.9 mph75%30.16 "Hg10 mi
8:51 PM70 °FPartly sunny.No wind55%30.15 "Hg10 mi
7:51 PM72 °FPartly sunny.No wind52%30.14 "Hg10 mi
6:51 PM77 °FPartly sunny.6 mph44%30.14 "Hg10 mi
5:51 PM79 °FPartly sunny.7 mph38%30.13 "Hg10 mi
4:51 PM79 °FScattered clouds.3 mph38%30.13 "Hg10 mi
3:51 PM79 °FScattered clouds.3 mph36%30.15 "Hg10 mi
Weather by CustomWeather, © 2015

See weather overviewHow to use our weather pages